Newport News, VA

1:16 AM EDT on August 22, 2019 (GMT -0400)
Newport News-Williamsburg International

Weather History for KPHF - July, 2019

Change the Weather History Date:

Sunday, July 21, 2019

  Actual Average Record
Temperature  
Mean Temperature 88 °F -  
Max Temperature 97 °F 88 °F 101 °F (1952)
Min Temperature 80 °F 70 °F 55 °F (2001)
Cooling Degree Days 24    
Growing Degree Days 38 (Base 50)    
Moisture  
Dew Point 74 °F    
Average Humidity 64    
Maximum Humidity 76    
Minimum Humidity 52    
Precipitation  
Precipitation 0.00 in - - ()
Sea Level Pressure  
Sea Level Pressure 29.90 in    
Wind  
Wind Speed 9 mph (WSW)    
Max Wind Speed 14 mph    
Max Gust Speed -    
Visibility 10 miles    
Events Thunderstorm    
Averages and records for this station are not official NWS values.
T = Trace of Precipitation, MM = Missing Value Source: NWS Daily Summary

Daily Weather History Graph

Daily Weather History Graph

Search for Another Location

Airport or City:

Astronomy

Jul. 21, 2019 Rise Set
Actual Time 6:01 AM EDT 8:22 PM EDT
Civil Twilight 5:32 AM EDT 8:51 PM EDT
Nautical Twilight 4:55 AM EDT 9:28 PM EDT
Astronomical Twilight 4:15 AM EDT 10:08 PM EDT
Moon 11:21 PM EDT (7/21) 10:15 AM EDT (7/21)
Length of Visible Light 15h 19m
Length of Day
14h 20m
Waning Gibbous, 80% of the Moon is Illuminated
Jul 21
Waning Gibbous
Jul 24
Last Quarter
Jul 31
New
Aug 7
First Quarter
Aug 15
Full

Hourly Weather History & Observations

Time (EDT) Temp. Heat Index Dew Point Humidity Pressure Visibility Wind Dir Wind Speed Gust Speed Precip Events Conditions
12:54 AM 84.9 °F 91.4 °F 73.0 °F 67% 29.91 in 10.0 mi WSW 8.1 mph - N/A   Clear
1:54 AM 84.0 °F 89.6 °F 72.0 °F 67% 29.91 in 10.0 mi WSW 9.2 mph - N/A   Clear
2:54 AM 82.9 °F 88.0 °F 72.0 °F 69% 29.91 in 10.0 mi WSW 9.2 mph - N/A   Clear
3:54 AM 82.0 °F 86.7 °F 72.0 °F 71% 29.90 in 10.0 mi WSW 9.2 mph - N/A   Clear
4:54 AM 81.0 °F 85.2 °F 72.0 °F 74% 29.90 in 10.0 mi WSW 9.2 mph - N/A   Clear
5:54 AM 80.1 °F 83.8 °F 72.0 °F 76% 29.90 in 10.0 mi SW 9.2 mph - N/A   Clear
6:54 AM 81.0 °F 85.2 °F 72.0 °F 74% 29.91 in 10.0 mi WSW 11.5 mph - N/A   Clear
7:54 AM 82.0 °F 86.7 °F 72.0 °F 71% 29.92 in 10.0 mi West 11.5 mph - N/A   Clear
8:54 AM 84.9 °F 92.1 °F 73.9 °F 69% 29.92 in 10.0 mi WSW 10.4 mph - N/A   Clear
9:54 AM 88.0 °F 97.5 °F 75.0 °F 65% 29.92 in 10.0 mi West 6.9 mph - N/A   Clear
10:54 AM 90.0 °F 102.5 °F 77.0 °F 65% 29.92 in 10.0 mi SSW 6.9 mph - N/A   Clear
11:54 AM 93.0 °F 108.9 °F 78.1 °F 62% 29.93 in 10.0 mi WSW 5.8 mph - N/A   Clear
12:54 PM 93.0 °F 105.3 °F 75.9 °F 57% 29.92 in 10.0 mi SW 6.9 mph - N/A   Clear
1:54 PM 95.0 °F 111.4 °F 78.1 °F 58% 29.91 in 10.0 mi SW 12.7 mph - N/A   Clear
2:54 PM 97.0 °F 113.5 °F 78.1 °F 54% 29.90 in 10.0 mi SW 13.8 mph - N/A   Scattered Clouds
3:54 PM 97.0 °F 113.5 °F 78.1 °F 54% 29.88 in 10.0 mi SW 12.7 mph - N/A Thunderstorm Clear
4:15 PM 96.1 °F 114.5 °F 79.0 °F 58% 29.88 in 10.0 mi SSW 11.5 mph - N/A   Clear
4:54 PM 93.0 °F 101.9 °F 73.0 °F 52% 29.88 in 10.0 mi SSW 10.4 mph - N/A   Clear
5:54 PM 95.0 °F 106.7 °F 75.0 °F 52% 29.88 in 10.0 mi WSW 13.8 mph - N/A   Clear
6:54 PM 93.0 °F 104.6 °F 75.0 °F 56% 29.86 in 10.0 mi West 8.1 mph - N/A   Clear
7:54 PM 91.0 °F 102.9 °F 75.9 °F 61% 29.88 in 10.0 mi NW 6.9 mph - N/A   Clear
8:54 PM 89.1 °F 98.0 °F 73.9 °F 61% 29.90 in 10.0 mi WSW 4.6 mph - N/A   Clear
9:54 PM 88.0 °F 94.7 °F 72.0 °F 59% 29.91 in 10.0 mi WNW 3.5 mph - N/A   Clear
10:54 PM 86.0 °F 92.2 °F 72.0 °F 63% 29.92 in 10.0 mi West 5.8 mph - N/A   Clear
11:54 PM 82.0 °F 87.4 °F 73.0 °F 74% 29.91 in 10.0 mi SW 5.8 mph - N/A   Clear